This demonstration page uses our WeatherBlox Daily Observations layout. Learn more.

39.29038, -76.61219

Hourly Observations for February 18, 2020

Temp ( °F °C ) Dew Point ( °F °C ) Humidity (%) Winds ( mph kmh ) Pressure ( in mb ) Visibility ( mi km ) Precip ( " mm )
12:54 am 00:54 undefined 43 6.1 30 -1.1 60 60 undefined N/A 30.28 1025 N/A 0 0
1:54 am 01:54 undefined 41 5 31 -0.6 67 67 undefined N/A 30.3 1026 N/A 0 0
2:54 am 02:54 undefined 41 5 32 0 70 70 undefined N/A 30.28 1025 N/A 0 0
3:54 am 03:54 undefined 41 5 32 0 70 70 undefined N/A 30.27 1025 N/A 0 0
4:54 am 04:54 undefined 41 5 33 0.6 73 73 undefined N/A 30.26 1025 N/A 0 0
5:54 am 05:54 undefined 41 5 33 0.6 73 73 undefined N/A 30.26 1025 N/A 0 0
6:54 am 06:54 undefined 41 5 35 1.7 79 79 undefined N/A 30.26 1025 N/A 0 0
7:54 am 07:54 undefined 42 5.6 36 2.2 79 79 undefined N/A 30.26 1025 N/A 0 0
8:54 am 08:54 undefined 44 6.7 37 2.8 76 76 undefined N/A 30.25 1024 N/A 0 0
9:54 am 09:54 undefined 48 8.9 38 3.3 68 68 undefined N/A 30.21 1023 N/A 0 0
10:54 am 10:54 undefined 47 8.3 39 3.9 74 74 undefined N/A 30.21 1023 N/A 0 0
11:54 am 11:54 undefined 52 11.1 41 5 66 66 undefined N/A 30.16 1022 N/A 0 0
12:54 pm 12:54 undefined 54 12.2 42 5.6 64 64 undefined N/A 30.1 1019 N/A 0 0
1:54 pm 13:54 undefined 58 14.4 44 6.7 60 60 undefined N/A 30.06 1018 N/A 0 0
2:54 pm 14:54 undefined 56 13.3 43 6.1 62 62 undefined N/A 30.02 1017 N/A 0 0
3:54 pm 15:54 undefined 55 12.8 43 6.1 64 64 undefined N/A 30.01 1016 N/A 0 0
4:54 pm 16:54 undefined 55 12.8 43 6.1 64 64 undefined N/A 30.02 1017 N/A 0 0
5:54 pm 17:54 undefined 56 13.3 43 6.1 62 62 undefined N/A 30.01 1016 N/A 0 0
6:54 pm 18:54 undefined 53 11.7 43 6.1 69 69 undefined N/A 30.01 1016 N/A 0 0
7:54 pm 19:54 undefined 53 11.7 43 6.1 69 69 undefined N/A 30.02 1017 N/A 0 0
8:54 pm 20:54 undefined 54 12.2 43 6.1 67 67 undefined N/A 30.03 1017 N/A 0 0
9:54 pm 21:54 undefined 54 12.2 43 6.1 67 67 undefined N/A 30.04 1017 N/A 0 0
10:54 pm 22:54 undefined 54 12.2 43 6.1 67 67 undefined N/A 30.05 1018 N/A 0 0
11:54 pm 23:54 undefined 55 12.8 42 5.6 62 62 undefined N/A 30.05 1018 N/A 0 0

Powered by AerisWeather